This is the latest recevied weather packets stored in our database for station/object SP2TMT-10. If no packets are shown the sender has not sent any weather packets the latest 10 day(s).
| Time | Temp. | Humidity | Pressure | Rain* | Wind** | Luminosity | Snow |
|---|---|---|---|---|---|---|---|
| 1777241304 | 19.44° C | 28% | 1023.3 hPa | - | - | - | - |
| 1777240404 | 19.44° C | 28% | 1023.2 hPa | - | - | - | - |
| 1777239504 | 19.44° C | 28% | 1023.4 hPa | - | - | - | - |
| 1777238604 | 19.44° C | 29% | 1023.4 hPa | - | - | - | - |
| 1777237704 | 19.44° C | 28% | 1023.5 hPa | - | - | - | - |
| 1777236804 | 19.44° C | 28% | 1023.5 hPa | - | - | - | - |
| 1777235904 | 19.44° C | 28% | 1023.5 hPa | - | - | - | - |
| 1777235004 | 19.44° C | 29% | 1023.6 hPa | - | - | - | - |
| 1777234104 | 19.44° C | 28% | 1023.6 hPa | - | - | - | - |
| 1777233204 | 19.44° C | 28% | 1023.5 hPa | - | - | - | - |
| 1777232298 | 19.44° C | 29% | 1023.4 hPa | - | - | - | - |
| 1777231398 | 19.44° C | 30% | 1023.4 hPa | - | - | - | - |
| 1777230498 | 19.44° C | 32% | 1023.3 hPa | - | - | - | - |
| 1777229598 | 19.44° C | 36% | 1023.1 hPa | - | - | - | - |
| 1777228698 | 19.44° C | 31% | 1023 hPa | - | - | - | - |
| 1777227798 | 19.44° C | 23% | 1022.8 hPa | - | - | - | - |
| 1777226898 | 19.44° C | 20% | 1022.5 hPa | - | - | - | - |
| 1777225997 | 19.44° C | 20% | 1022.4 hPa | - | - | - | - |
| 1777225097 | 19.44° C | 20% | 1022.3 hPa | - | - | - | - |
| 1777224197 | 19.44° C | 19% | 1022.3 hPa | - | - | - | - |
| 1777223297 | 19.44° C | 20% | 1022.3 hPa | - | - | - | - |
| 1777222398 | 19.44° C | 19% | 1022.2 hPa | - | - | - | - |
| 1777221497 | 19.44° C | 18% | 1022 hPa | - | - | - | - |
| 1777220597 | 19.44° C | 19% | 1022.1 hPa | - | - | - | - |
| 1777219697 | 19.44° C | 20% | 1022 hPa | - | - | - | - |
* Rain since midnight (hover to see other rain measurements)
** Current wind speed in m/s (hover to see current wind gust speed)